Location: Lake Zurich
(42.1970°N, 88.0930°W)
Time: 19:19:03
(UTC-05:00)

Amateur Radio Satellites - All Passes

Search period start: 22 September 2014 18:49
Search period end: 23 September 2014 18:49
Location: Lake Zurich, 42.1970°N, 88.0930°W

Satellite Date Start Highest point End Downlink Frequencies (MHz)
Time Altitude Azimuth
STRAND 1 22 Sep 19:18:15 19:23:07 42° 99° (E) 19:27:58 ?
HO-68 22 Sep 19:19:37 19:24:32 21° 55° (NE) 19:29:27 435.675 MHz FM
Sapphire 22 Sep 19:37:31 19:41:53 24° 46° (NE) 19:46:13 437.095 MHz 1200 baud AX-25 AFSK
PCSat 22 Sep 20:03:49 20:08:53 38° 52° (NE) 20:13:54 145.825 MHz
SO-67 22 Sep 20:19:51 20:21:23 13° 269° (W) 20:22:56 435.3500 MHz FM
KITSAT 1 22 Sep 20:22:38 20:30:19 46° 312° (NW) 20:38:02 435.175 FM
SO-50 22 Sep 20:41:50 20:44:41 17° 110° (ESE) 20:47:34 436.795 FM
STRAND 1 22 Sep 20:57:56 21:02:04 25° 295° (WNW) 21:06:12 ?
HO-68 22 Sep 21:04:14 21:11:22 85° 254° (WSW) 21:18:35 435.675 MHz FM
Oscar 11 22 Sep 21:16:21 21:20:25 39° 71° (ENE) 21:24:30 145.825 FM, Beacon 2401.500 USB
FUNcube-1 22 Sep 21:16:43 21:19:42 18° 64° (ENE) 21:22:45 145.950 - 145.970 MHz USB
Sapphire 22 Sep 21:20:21 21:25:42 60° 245° (WSW) 21:31:01 437.095 MHz 1200 baud AX-25 AFSK
UKube-1 22 Sep 21:36:15 21:40:35 88° 256° (WSW) 21:44:57 145.840 MHz, 145.915 MHz
PCSat 22 Sep 21:47:24 21:52:13 33° 250° (WSW) 21:57:00 145.825 MHz
ZACube-1 22 Sep 21:58:18 22:02:33 46° 72° (ENE) 22:06:55 437.345 MHz
SO-50 22 Sep 22:20:21 22:24:45 56° 307° (NW) 22:29:18 436.795 FM
KITSAT 1 22 Sep 22:23:23 22:28:07 16° 338° (NNW) 22:32:51 435.175 FM
FUNcube-1 22 Sep 22:51:25 22:55:42 48° 261° (W) 23:00:07 145.950 - 145.970 MHz USB
Oscar 11 22 Sep 22:53:38 22:56:45 19° 267° (W) 22:59:52 145.825 FM, Beacon 2401.500 USB
HO-68 22 Sep 22:56:20 23:00:03 15° 272° (W) 23:03:46 435.675 MHz FM
Oscar 10/S400 22 Sep 23:21:39 00:07:18 52° 203° (SSW) 07:44:03 145.825 - 145.975 CW/USB, Beacon 145.810 USB
ZACube-1 22 Sep 23:36:16 23:39:12 17° 269° (W) 23:42:12 437.345 MHz
UOSAT-12 22 Sep 23:38:29 23:43:06 82° 122° (ESE) 23:47:50 437.025 FM, 437.400 FM
SO-50 23 Sep 00:05:01 00:06:23 11° 328° (NNW) 00:07:45 436.795 FM
AO-40 23 Sep 00:22:43 01:40:31 17° 230° (SW) 03:46:15 Beacon 2401.320
KITSAT 1 23 Sep 00:24:27 00:27:43 13° 9° (N) 00:30:59 435.175 FM
Saudisat 1A 23 Sep 00:31:01 00:35:03 33° 48° (NE) 00:39:03 436.775 MHz
Oscar 16 23 Sep 01:13:49 01:16:41 15° 90° (E) 01:19:31 437.025 USB, Beacon 2401.1428
UOSAT-12 23 Sep 01:20:46 01:23:52 17° 322° (NW) 01:27:00 437.025 FM, 437.400 FM
ISS 23 Sep 01:23:05 01:26:15 43° 139° (SE) 01:29:26 145.800 FM
PANSAT 23 Sep 01:41:56 01:42:39 10° 179° (S) 01:43:22 not established
JAS-1B 23 Sep 01:50:38 01:54:20 17° 91° (E) 01:58:04 435.800 - 435.900 CW/SSB
ITAMSAT 1 23 Sep 02:04:12 02:07:47 19° 92° (E) 02:11:21 435.822 SSB
Uribyol 2 23 Sep 02:07:12 02:11:08 21° 93° (E) 02:15:02 436.500 FM
Saudisat 1A 23 Sep 02:10:44 02:14:33 29° 246° (WSW) 02:18:20 436.775 MHz
Oscar 19 23 Sep 02:11:55 02:16:58 51° 100° (E) 02:21:57 437.125 CW, 437.150 USB
Gurwin Techsat 1B 23 Sep 02:15:49 02:17:12 11° 88° (E) 02:18:35 435.225 FM
KITSAT 1 23 Sep 02:19:41 02:26:28 28° 38° (NE) 02:33:12 435.175 FM
AO-Echo 23 Sep 02:34:45 02:39:25 42° 99° (E) 02:44:10 ?
RS-15 23 Sep 02:38:15 02:47:14 30° 104° (ESE) 02:56:05 29.354 - 29.394 USB, Beacon 29.352 USB
AO-27 23 Sep 02:39:14 02:44:08 40° 98° (E) 02:49:01 436.795 MHz FM
TMSAT-1 23 Sep 02:48:39 02:52:08 18° 91° (E) 02:55:36 436.925 FM
Oscar 16 23 Sep 02:51:22 02:56:31 68° 287° (WNW) 03:01:37 437.025 USB, Beacon 2401.1428
ISS 23 Sep 03:00:02 03:03:02 30° 337° (NNW) 03:06:03 145.800 FM
JAS-1B 23 Sep 03:39:57 03:45:33 58° 289° (WNW) 03:51:12 435.800 - 435.900 CW/SSB
ITAMSAT 1 23 Sep 03:42:31 03:47:37 56° 289° (WNW) 03:52:42 435.822 SSB
Uribyol 2 23 Sep 03:45:49 03:50:51 49° 290° (WNW) 03:55:52 436.500 FM
Oscar 19 23 Sep 03:52:07 03:55:55 21° 297° (WNW) 03:59:42 437.125 CW, 437.150 USB
Gurwin Techsat 1B 23 Sep 03:52:32 03:57:53 90° 284° (WNW) 04:03:12 435.225 FM
OPAL 23 Sep 04:08:50 04:13:45 44° 67° (ENE) 04:18:42 ?
AO-Echo 23 Sep 04:14:08 04:17:57 23° 294° (WNW) 04:21:50 ?
KITSAT 1 23 Sep 04:14:42 04:22:49 84° 241° (WSW) 04:30:53 435.175 FM
AO-7 23 Sep 04:17:28 04:24:33 30° 96° (E) 04:31:35 29.400 - 29.500 MHz
AO-27 23 Sep 04:19:08 04:23:27 27° 295° (WNW) 04:27:46 436.795 MHz FM
TMSAT-1 23 Sep 04:27:13 04:32:27 60° 288° (WNW) 04:37:39 436.925 FM
ISS 23 Sep 04:38:19 04:40:31 16° 357° (N) 04:42:42 145.800 FM
RS-15 23 Sep 04:47:28 04:58:31 75° 306° (NW) 05:09:30 29.354 - 29.394 USB, Beacon 29.352 USB
SO-50 23 Sep 05:11:24 05:15:14 23° 43° (NE) 05:19:06 436.795 FM
Uosat F 23 Sep 05:26:39 05:31:42 88° 104° (ESE) 05:36:45 435.120 FM
JAS-2 23 Sep 05:29:44 05:34:24 21° 93° (E) 05:39:24 435.800 - 435.900 CW/SSB, 435.910 FM
Gurwin Techsat 1B 23 Sep 05:34:42 05:37:04 13° 302° (WNW) 05:39:25 435.225 FM
Hamsat 23 Sep 05:42:14 05:44:33 14° 91° (E) 05:46:51 145.90 MHz
OPAL 23 Sep 05:48:39 05:52:47 24° 264° (W) 05:56:58 ?
AO-7 23 Sep 06:09:38 06:17:46 62° 294° (WNW) 06:25:52 29.400 - 29.500 MHz
KITSAT 1 23 Sep 06:12:21 06:16:59 17° 260° (W) 06:21:37 435.175 FM
ISS 23 Sep 06:15:21 06:18:05 23° 17° (NNE) 06:20:49 145.800 FM
MaSat-1 23 Sep 06:21:29 06:23:17 12° 100° (E) 06:25:04 437.345 MHz
UOSAT-12 23 Sep 06:28:54 06:31:34 15° 36° (NE) 06:34:13 437.025 FM, 437.400 FM
STRAND 1 23 Sep 06:34:38 06:39:39 64° 73° (ENE) 06:44:42 ?
SO-50 23 Sep 06:51:24 06:56:07 56° 241° (WSW) 07:00:53 436.795 FM
RS-15 23 Sep 07:03:57 07:13:02 29° 334° (NNW) 07:22:13 29.354 - 29.394 USB, Beacon 29.352 USB
Uosat F 23 Sep 07:07:43 07:09:45 12° 302° (WNW) 07:11:47 435.120 FM
JAS-2 23 Sep 07:13:39 07:19:46 68° 287° (WNW) 07:26:42 435.800 - 435.900 CW/SSB, 435.910 FM
Hamsat 23 Sep 07:16:42 07:20:48 48° 287° (WNW) 07:24:50 145.90 MHz
SO-67 23 Sep 07:40:48 07:44:06 40° 98° (E) 07:47:22 435.3500 MHz FM
ISS 23 Sep 07:51:47 07:55:07 81° 216° (SW) 07:58:26 145.800 FM
MaSat-1 23 Sep 07:54:19 07:59:20 86° 296° (WNW) 08:04:12 437.345 MHz
AO-7 23 Sep 08:04:46 08:08:54 15° 315° (NW) 08:13:03 29.400 - 29.500 MHz
UOSAT-12 23 Sep 08:07:45 08:12:31 79° 56° (NE) 08:17:10 437.025 FM, 437.400 FM
STRAND 1 23 Sep 08:16:20 08:19:17 15° 269° (W) 08:22:15 ?
HO-68 23 Sep 08:33:06 08:37:36 17° 90° (E) 08:42:04 435.675 MHz FM
JAS-2 23 Sep 09:01:51 09:03:57 12° 304° (WNW) 09:06:09 435.800 - 435.900 CW/SSB, 435.910 FM
SO-67 23 Sep 09:15:20 09:16:45 12° 294° (WNW) 09:18:10 435.3500 MHz FM
RS-15 23 Sep 09:22:14 09:30:24 23° 10° (N) 09:38:41 29.354 - 29.394 USB, Beacon 29.352 USB
UKube-1 23 Sep 09:25:21 09:27:55 15° 92° (E) 09:30:27 145.840 MHz, 145.915 MHz
MaSat-1 23 Sep 09:34:04 09:36:40 14° 313° (NW) 09:39:13 437.345 MHz
UOSAT-12 23 Sep 09:50:06 09:51:59 12° 253° (WSW) 09:53:50 437.025 FM, 437.400 FM
HO-68 23 Sep 10:18:54 10:26:07 86° 288° (WNW) 10:33:18 435.675 MHz FM
Sapphire 23 Sep 10:21:42 10:24:55 16° 104° (ESE) 10:28:08 437.095 MHz 1200 baud AX-25 AFSK
Oscar 11 23 Sep 10:39:13 10:43:35 76° 102° (ESE) 10:47:54 145.825 FM, Beacon 2401.500 USB
FUNcube-1 23 Sep 10:40:12 10:44:22 33° 96° (E) 10:48:27 145.950 - 145.970 MHz USB
PCSat 23 Sep 10:46:35 10:51:12 30° 109° (ESE) 10:55:50 145.825 MHz
UKube-1 23 Sep 11:00:10 11:04:23 50° 288° (WNW) 11:08:35 145.840 MHz, 145.915 MHz
ZACube-1 23 Sep 11:23:09 11:27:49 87° 284° (WNW) 11:32:22 437.345 MHz
RS-15 23 Sep 11:35:57 11:46:31 47° 43° (NE) 11:57:24 29.354 - 29.394 USB, Beacon 29.352 USB
Oscar 19 23 Sep 11:54:36 11:55:53 11° 57° (ENE) 11:57:10 437.125 CW, 437.150 USB
Sapphire 23 Sep 12:02:19 12:07:42 71° 301° (WNW) 12:13:08 437.095 MHz 1200 baud AX-25 AFSK
HO-68 23 Sep 12:08:17 12:12:49 18° 307° (NW) 12:17:21 435.675 MHz FM
FUNcube-1 23 Sep 12:16:47 12:20:36 26° 293° (WNW) 12:24:22 145.950 - 145.970 MHz USB
Oscar 11 23 Sep 12:17:51 12:19:08 11° 299° (WNW) 12:20:25 145.825 FM, Beacon 2401.500 USB
PCSat 23 Sep 12:29:19 12:34:26 42° 307° (NW) 12:39:35 145.825 MHz
Oscar 16 23 Sep 12:30:50 12:34:57 24° 64° (ENE) 12:39:04 437.025 USB, Beacon 2401.1428
JAS-1B 23 Sep 12:35:43 12:41:40 24° 62° (ENE) 12:46:57 435.800 - 435.900 CW/SSB
ZACube-1 23 Sep 13:02:51 13:03:25 10° 301° (WNW) 13:04:00 437.345 MHz
ITAMSAT 1 23 Sep 13:22:30 13:26:57 30° 66° (ENE) 13:31:25 435.822 SSB
Uribyol 2 23 Sep 13:25:25 13:30:01 34° 67° (ENE) 13:34:39 436.500 FM
Oscar 19 23 Sep 13:29:09 13:34:20 78° 74° (ENE) 13:39:33 437.125 CW, 437.150 USB
AO-7 23 Sep 13:32:40 13:33:55 10° 39° (NE) 13:35:09 29.400 - 29.500 MHz
Gurwin Techsat 1B 23 Sep 13:36:12 13:40:01 21° 62° (ENE) 13:43:50 435.225 FM
RS-15 23 Sep 13:48:27 13:59:15 60° 246° (WSW) 14:10:31 29.354 - 29.394 USB, Beacon 29.352 USB
AO-Echo 23 Sep 13:48:28 13:53:04 56° 73° (ENE) 13:57:41 ?
Sapphire 23 Sep 13:49:13 13:52:08 14° 322° (NW) 13:55:03 437.095 MHz 1200 baud AX-25 AFSK
AO-27 23 Sep 13:57:51 14:02:57 64° 72° (ENE) 14:08:05 436.795 MHz FM
Oscar 16 23 Sep 14:09:04 14:14:01 44° 261° (W) 14:19:00 437.025 USB, Beacon 2401.1428
TMSAT-1 23 Sep 14:09:37 14:14:07 29° 66° (ENE) 14:18:39 436.925 FM
JAS-1B 23 Sep 14:23:30 14:31:52 72° 257° (WSW) 14:38:50 435.800 - 435.900 CW/SSB
ITAMSAT 1 23 Sep 15:01:39 15:06:20 35° 263° (W) 15:11:03 435.822 SSB
Uosat F 23 Sep 15:04:04 15:07:11 17° 61° (ENE) 15:10:18 435.120 FM
Uribyol 2 23 Sep 15:04:57 15:09:28 31° 264° (W) 15:14:03 436.500 FM
Oscar 19 23 Sep 15:11:58 15:14:15 13° 271° (W) 15:16:33 437.125 CW, 437.150 USB
Gurwin Techsat 1B 23 Sep 15:14:22 15:19:33 56° 260° (W) 15:24:47 435.225 FM
AO-7 23 Sep 15:16:51 15:24:33 45° 61° (ENE) 15:32:15 29.400 - 29.500 MHz
AO-Echo 23 Sep 15:29:33 15:32:13 15° 269° (W) 15:34:54 ?
AO-27 23 Sep 15:39:48 15:42:54 16° 269° (W) 15:46:01 436.795 MHz FM
TMSAT-1 23 Sep 15:49:03 15:53:54 37° 263° (W) 15:58:48 436.925 FM
RS-15 23 Sep 16:06:51 16:09:09 11° 266° (W) 16:11:29 29.354 - 29.394 USB, Beacon 29.352 USB
MaSat-1 23 Sep 16:11:09 16:13:55 19° 50° (NE) 16:16:24 437.345 MHz
Saudisat 1A 23 Sep 16:16:49 16:21:09 64° 120° (ESE) 16:25:32 436.775 MHz
JAS-1B 23 Sep 16:20:25 16:23:10 12° 271° (W) 16:25:48 435.800 - 435.900 CW/SSB
Hamsat 23 Sep 16:36:57 16:38:50 13° 62° (ENE) 16:40:44 145.90 MHz
Uosat F 23 Sep 16:40:30 16:45:27 64° 258° (WSW) 16:50:26 435.120 FM
KITSAT 1 23 Sep 16:54:30 16:56:58 12° 97° (E) 16:59:26 435.175 FM
AO-7 23 Sep 17:09:31 17:17:18 44° 260° (W) 17:25:09 29.400 - 29.500 MHz
JAS-2 23 Sep 17:27:29 17:32:31 52° 71° (ENE) 17:37:36 435.800 - 435.900 CW/SSB, 435.910 FM
MaSat-1 23 Sep 17:47:32 17:50:39 27° 253° (WSW) 17:53:22 437.345 MHz
OPAL 23 Sep 17:56:47 18:01:58 87° 106° (ESE) 18:07:03 ?
Saudisat 1A 23 Sep 17:58:02 18:01:09 19° 319° (NW) 18:04:17 436.775 MHz
Hamsat 23 Sep 18:09:55 18:14:15 66° 259° (W) 18:18:35 145.90 MHz
SO-67 23 Sep 18:15:13 18:17:21 16° 67° (ENE) 18:19:29 435.3500 MHz FM
